This is the latest recevied weather packets stored in our database for station/object KD8DLP-13. If no packets are shown the sender has not sent any weather packets the latest 10 day(s).
| Time | Temp. | Humidity | Pressure | Rain* | Wind** | Luminosity | Snow |
|---|---|---|---|---|---|---|---|
| 1777119669 | 9.44° C | 91% | 1014.5 hPa | 0 mm | - | 151 W/m² | - |
| 1777119363 | 8.89° C | 92% | 1014.6 hPa | 0 mm | - | 112 W/m² | - |
| 1777119058 | 8.89° C | 92% | 1014.9 hPa | 0 mm | - | 84 W/m² | - |
| 1777118754 | 8.33° C | 93% | 1014.9 hPa | 0 mm | - | 83 W/m² | - |
| 1777118450 | 8.33° C | 93% | 1014.5 hPa | 0 mm | - | 78 W/m² | - |
| 1777118146 | 8.33° C | 93% | 1014.6 hPa | 0 mm | - | 57 W/m² | - |
| 1777117843 | 8.33° C | 94% | 1014.6 hPa | 0 mm | - | 50 W/m² | - |
| 1777117540 | 7.78° C | 94% | 1014.6 hPa | 0 mm | - | 45 W/m² | - |
| 1777117238 | 8.33° C | 94% | 1014.3 hPa | 0 mm | - | 36 W/m² | - |
| 1777116634 | 7.78° C | 94% | 1014.1 hPa | 0 mm | - | 34 W/m² | - |
| 1777116329 | 7.78° C | 94% | 1014 hPa | 0 mm | - | 33 W/m² | - |
| 1777116025 | 7.78° C | 94% | 1013.8 hPa | 0 mm | - | 21 W/m² | - |
| 1777115720 | 7.78° C | 94% | 1013.7 hPa | 0 mm | - | 15 W/m² | - |
| 1777115416 | 7.78° C | 94% | 1013.5 hPa | 0 mm | - | 11 W/m² | - |
| 1777115113 | 7.78° C | 94% | 1013.5 hPa | 0 mm | - | 8 W/m² | - |
| 1777114810 | 7.78° C | 94% | 1013.4 hPa | 0 mm | - | 7 W/m² | - |
| 1777114506 | 7.78° C | 94% | 1013.2 hPa | 0 mm | - | 5 W/m² | - |
| 1777114201 | 7.78° C | 94% | 1013.2 hPa | 0 mm | - | 3 W/m² | - |
| 1777113897 | 7.78° C | 94% | 1013.1 hPa | 0 mm | - | 2 W/m² | - |
| 1777113596 | 7.78° C | 94% | 1013.1 hPa | 0 mm | - | 1 W/m² | - |
| 1777113292 | 7.78° C | 94% | 1013.2 hPa | 0 mm | - | 0 W/m² | - |
| 1777112985 | 7.78° C | 94% | 1012.8 hPa | 0 mm | - | 0 W/m² | - |
| 1777112683 | 7.78° C | 94% | 1013 hPa | 0 mm | - | 0 W/m² | - |
| 1777112378 | 7.78° C | 94% | 1013 hPa | 0 mm | - | 0 W/m² | - |
| 1777112076 | 7.78° C | 94% | 1013.1 hPa | 0 mm | - | 0 W/m² | - |
* Rain latest hour (hover to see other rain measurements)
** Current wind speed in m/s (hover to see current wind gust speed)